Welcome to the New NWS' Forecast!
Most changes are behind the scenes, but click here for differences you might notice.
Latest weather observations around

Seattle, Seattle-Tacoma International Airport (KSEA)

Using English Units (Switch to International System of Units)
Date/ Time (PDT) Wind (mph) Vis. (mi) Weather Sky Cond. Temp (°F) Rel. Humidity Wind Chill (°F) Heat Index (°F) Pressure Precip. (in)
Air Dwpt 6 hour Altimeter (inHg) Sea level (inHg) 1 hr 3 hr 6 hr
Max Min
Sep 18 15:53 WNW 8 10 Partly Cloudy FEW030 SCT250 67 46     47%     30.08 30.1      
Sep 18 14:53 N 9 10 Partly Cloudy FEW030 SCT250 66 45     47%     30.09 30.11      
Sep 18 13:53 WNW 9 10 Partly Cloudy FEW020 SCT250 64 48     56%     30.11 30.12      
Sep 18 12:53 Calm 10 Partly Cloudy FEW018 SCT250 61 48     62%     30.12 30.14      
Sep 18 11:53 Calm 10 Partly Cloudy SCT015 SCT250 59 47     64%     30.13 30.15      
Sep 18 11:41 N 6 10 Partly Cloudy SCT013 SCT250 59 47     64%     30.13        
Sep 18 10:53   10 Mostly Cloudy BKN010 56 47     72%     30.14 30.15      
Sep 18 10:46 NNE 6 10 Mostly Cloudy BKN010 55 47     74%     30.14        
Sep 18 09:24 N 7 10 Cloudy OVC009 53 46     77%     30.13        
Sep 18 08:53 N 6 10 Mostly Cloudy BKN013 53 46     77%     30.13 30.15      
Sep 18 08:40 N 6 10 Mostly Cloudy BKN013 53 45     74%     30.14        
Sep 18 07:53 Calm 10 Partly Cloudy SCT013 51 45     79%     30.13 30.15      
Sep 18 06:53 NNW 5 10 Mostly Clear FEW080 48 43     83% 46   30.13 30.15      
Sep 18 05:53 N 5 10 Mostly Clear FEW200 48 43     83% 46   30.12 30.14      
Sep 18 04:53 NE 7 10 Clear CLR 51 43     74%     30.11 30.13      
Sep 18 03:53 N 6 10 Clear CLR 49 42     77% 46   30.11 30.13      
Sep 18 02:53 N 7 10 Clear CLR 52 43     71%     30.11 30.12      
Sep 18 01:53 NNE 10 10 Clear CLR 52 43     71%     30.11 30.12      
Sep 18 00:53 NE 9 10 Clear CLR 53 43     69%     30.11 30.12      
Sep 17 23:53 NE 11 10 Clear CLR 54 42     64%     30.11 30.13      
Sep 17 22:53 N 8 10 Clear CLR 55 43     64%     30.11 30.13      
Sep 17 21:53 N 10 10 Clear CLR 56 43     62%     30.11 30.13      
Sep 17 20:53 N 9 10 Clear CLR 56 42     60%     30.11 30.13      
Sep 17 19:53 N 10 10 Mostly Clear FEW040 FEW250 58 42     55%     30.1 30.12      
Sep 17 18:53 N 10 10 Mostly Clear FEW040 FEW250 60 42     51%     30.1 30.11      
Sep 17 17:53 NW 7 10 Mostly Clear FEW040 FEW250 65 42     43%     30.09 30.11      
Sep 17 16:53 WNW 10 10 Partly Cloudy FEW040 SCT250 65 43     45%     30.1 30.11      
Sep 17 15:53 WNW 11 10 Partly Cloudy FEW040 SCT250 64 44     48%     30.1 30.11      
Sep 17 14:53 WNW 10 10 Partly Cloudy SCT039 SCT250 64 44     48%     30.11 30.12      
Sep 17 13:53 WNW 9 10 Partly Cloudy SCT035 SCT250 63 44     50%     30.12 30.14      
Sep 17 12:53 WNW 10 10 Partly Cloudy FEW017 SCT035 SCT250 63 46     54%     30.13 30.15      
Sep 17 11:53 N 9 10 Partly Cloudy FEW013 SCT032 SCT250 62 45     53%     30.15 30.16      
Sep 17 10:53 NNE 8 10 Mostly Cloudy FEW011 SCT030 BKN041 59 47     64%     30.15 30.17      
Sep 17 09:53 NNE 8 10 Mostly Cloudy FEW009 BKN035 57 49     74%     30.15 30.17      
Sep 17 09:32 NE 6 10 Mostly Cloudy FEW009 BKN032 56 49     77%     30.15        
Sep 17 09:06 ENE 3 10 Mostly Cloudy FEW012 BKN030 55 49     80%     30.15        
Sep 17 08:53 3 10 Mostly Cloudy FEW012 BKN026 55 49     80%     30.15 30.16      
Sep 17 07:53 WNW 3 10 Mostly Cloudy FEW014 BKN026 BKN250 54 50     86%     30.14 30.15      
Sep 17 07:23 Calm 10 Mostly Cloudy FEW009 SCT014 BKN026 53 49     86%     30.13        
Sep 17 06:53 Calm 10 Mostly Cloudy FEW009 BKN014 53 49     86%     30.13 30.15      
Sep 17 06:36 Calm 10 Mostly Cloudy FEW009 BKN014 52 48     86%     30.13        
Sep 17 05:53 N 5 10 Mostly Cloudy BKN015 52 49     89%     30.12 30.14      
Sep 17 05:34 Calm 10 Mostly Cloudy BKN015 51 48     89%     30.12        
Sep 17 04:53 SSE 3 10 Partly Cloudy SCT015 51 48     89%     30.12 30.14      
Sep 17 03:53 Calm 10 Partly Cloudy SCT014 53 48     83%     30.12 30.13      
Sep 17 03:34 Calm 10 Partly Cloudy SCT014 54 48     80%     30.12        
Sep 17 02:53 SSE 3 10 Mostly Cloudy BKN015 54 49     83%     30.12 30.14      
Sep 17 01:53 SSE 6 10 Mostly Cloudy BKN015 54 49     83%     30.12 30.13      
Sep 17 00:53 SSE 3 10 Mostly Clear FEW016 FEW090 51 47     86%     30.11 30.13      
Sep 16 23:53 S 5 10 Partly Cloudy SCT017 55 49     80%     30.1 30.11      
Sep 16 22:53 SW 6 10 Mostly Clear FEW025 FEW090 55 48     77%     30.09 30.11      
Sep 16 21:53 SW 9 10 Mostly Clear FEW025 FEW090 57 49     74%     30.08 30.09      
Sep 16 20:53 SSW 10 10 Mostly Clear FEW035 58 49     72%     30.06 30.08      
Sep 16 19:53 SSW 14 10 Partly Cloudy FEW045 SCT080 59 48     67%     30.03 30.05      
Sep 16 18:53 SSW 14 10 Mostly Clear FEW045 FEW080 61 48     62%     30.01 30.03      
Sep 16 17:53 SSW 16 10 Partly Cloudy FEW045 SCT070 63 48     58%     30 30.01      
Sep 16 16:53 SSW 15 10 Partly Cloudy FEW045 SCT070 64 49     58%     29.98 30     0
Sep 16 15:53 SW 15 10 Mostly Cloudy FEW045 SCT060 BKN085 64 49     58%     29.97 29.99      
Sep 16 14:53 SSW 14 10 Mostly Cloudy FEW047 SCT080 BKN150 62 48     60%     29.96 29.97 0    
Sep 16 13:53 S 15 10 Light Rain FEW015 SCT035 BKN080 62 49     62%     29.95 29.96 0 0  
Sep 16 12:53 S 14 10 Mostly Cloudy FEW015 SCT030 BKN095 61 48     62%     29.93 29.95      
Sep 16 11:53 SSW 17 10 Mostly Cloudy FEW015 SCT030 BKN070 63 52     67%     29.92 29.93      
Sep 16 10:53 S 15 10 Mostly Clear FEW015 FEW030 FEW070 58 50     75%     29.9 29.92 0   0
Sep 16 09:53 S 14 10 Light Rain FEW012 SCT030 BKN065 56 52     87%     29.88 29.9 0    
Sep 16 09:37 S 11 10 Light Rain FEW016 SCT028 BKN065 55 51     86%     29.87   0    
Sep 16 08:53 S 8 10 Mostly Cloudy FEW016 BKN028 BKN035 55 51     86%     29.86 29.88      
Sep 16 08:37 SSE 13 10 Mostly Cloudy FEW017 BKN028 BKN035 55 50     83%     29.86        
Sep 16 07:53 S 10 10 Mostly Cloudy FEW014 SCT035 BKN065 54 51     90%     29.84 29.86 0 0  
Sep 16 06:53 S 8 5 Light Rain and Fog/Mist FEW024 OVC031 55 51     86%     29.82 29.84 0    
Sep 16 05:53 SE 7 10 Cloudy FEW048 OVC060 56 51     84%     29.8 29.81 0    
Sep 16 04:53 SE 7 10 Light Rain BKN047 OVC060 56 51     84%     29.81 29.82 0   0
Sep 16 03:53 SSE 6 10 Light Rain SCT050 OVC060 56 51     84%     29.82 29.84 0    
Sep 16 02:53 SSE 9 10 Cloudy OVC060 57 51     81%     29.83 29.84      
Sep 16 01:53 SSE 5 10 Cloudy FEW045 BKN060 OVC080 56 51     84%     29.84 29.85 0 0  
Sep 16 00:53 SSE 13 10 Light Rain BKN035 OVC043 57 51     81%     29.86 29.87 0    
Sep 15 23:53 ESE 5 10 Cloudy SCT039 BKN048 OVC060 56 52     87%     29.86 29.88      
Sep 15 22:53 3 10 Cloudy FEW036 OVC044 56 52     87%     29.87 29.88     0
Sep 15 21:53 SSE 9 10 Cloudy FEW055 BKN070 OVC080 56 52     87%     29.87 29.89 0    
Sep 15 20:53 SSE 8 10 Cloudy BKN070 OVC085 57 53     87%     29.88 29.89 0    
Sep 15 19:53 SSE 7 10 Cloudy FEW060 BKN075 OVC090 58 52     81%     29.87 29.89   0  
Sep 15 18:53 SW 5 10 Cloudy FEW022 SCT070 OVC090 57 51     81%     29.88 29.89 0    
Sep 15 18:37 WSW 3 10 Cloudy FEW024 BKN060 OVC080 57 50     77%     29.87   0    
Sep 15 18:07 W 9 9 Light Rain FEW013 BKN023 OVC085 58 52     81%     29.88   0    
Sep 15 17:53 SSW 9 10 Cloudy SCT040 BKN070 OVC085 59 53     81%     29.87 29.89 0    
Sep 15 16:53 SSW 11 10 Cloudy FEW035 SCT060 OVC075 63 49     60%     29.86 29.88     0
Sep 15 15:53 SSW 9 10 Mostly Cloudy FEW020 BKN070 BKN100 63 51     65%     29.86 29.87 0    
Sep 15 14:53 SSW 8 10 Light Rain FEW020 SCT050 BKN100 62 51     67%     29.86 29.87 0    
Sep 15 13:53 SW 8 10 Mostly Cloudy FEW020 SCT050 BKN100 62 49     62%     29.86 29.88      
Sep 15 12:53 SW 7 10 Cloudy FEW010 BKN060 OVC070 61 49     64%     29.86 29.88      
Sep 15 11:53 S 8 10 Cloudy SCT050 BKN070 OVC085 61 49     64%     29.87 29.89      
Sep 15 10:53 SW 8 10 Cloudy SCT049 BKN070 OVC090 59 49     69%     29.88 29.89      
Sep 15 09:53 SSE 7 10 Cloudy BKN070 OVC100 58 48     70%     29.87 29.89      
Sep 15 08:53 SSE 8 10 Mostly Cloudy FEW050 BKN095 BKN180 56 48     75%     29.87 29.88      
Sep 15 07:53 SSE 6 10 Mostly Cloudy SCT060 BKN110 BKN170 54 49     83%     29.87 29.89      
Sep 15 06:53 SSE 5 10 Cloudy FEW030 SCT060 OVC110 53 49     86%     29.88 29.89      
Sep 15 05:53 SE 8 10 Mostly Cloudy FEW040 SCT060 BKN140 54 49     83%     29.87 29.89      
Sep 15 04:53 SE 7 10 Mostly Cloudy FEW040 BKN060 BKN140 54 50     86%     29.88 29.89      
Sep 15 03:53 SSE 3 10 Mostly Cloudy SCT080 BKN160 54 51     90%     29.88 29.9      
Sep 15 02:53 SSE 3 10 Mostly Cloudy FEW040 FEW080 BKN210 53 51     93%     29.89 29.91      
Sep 15 01:53 SE 6 10 Partly Cloudy FEW100 SCT240 55 52     89%     29.9 29.91      
Sep 15 00:53 SE 6 10 Partly Cloudy FEW050 SCT100 SCT240 56 51     84%     29.91 29.93      
Sep 14 23:53 SE 6 10 Partly Cloudy FEW050 SCT100 SCT240 57 51     81%     29.93 29.94      
Sep 14 22:53 S 6 10 Mostly Cloudy FEW050 BKN100 57 49     74%     29.93 29.95      
Sep 14 21:53 S 6 10 Cloudy SCT070 OVC110 59 49     69%     29.94 29.95      
Sep 14 20:53 S 7 10 Cloudy FEW044 SCT080 OVC110 59 49     69%     29.94 29.96      
Sep 14 19:53 SW 7 10 Cloudy BKN045 OVC120 61 47     60%     29.93 29.95      
Sep 14 18:53 W 9 10 Cloudy SCT020 SCT049 BKN085 OVC180 62 46     56%     29.93 29.94      
Sep 14 17:53 SW 6 10 Mostly Cloudy SCT020 SCT085 BKN180 65 48     54%     29.93 29.94      
Sep 14 16:53 SW 5 10 Mostly Cloudy SCT020 SCT080 BKN200 66 47     50%     29.93 29.94      
Sep 14 15:53 SW 7 10 Mostly Cloudy SCT020 SCT080 BKN200 66 48     52%     29.94 29.95      
Sep 14 14:53 6 10 Mostly Cloudy FEW020 FEW080 BKN200 66 50     56%     29.95 29.96      
Sep 14 13:53 W 6 10 Mostly Cloudy FEW020 FEW080 BKN200 64 51     63%     29.97 29.98      
Sep 14 12:53 SSW 8 10 Mostly Cloudy FEW011 FEW080 BKN180 63 51     65%     29.97 29.99      
Sep 14 11:53 WSW 7 10 Mostly Cloudy SCT011 SCT070 BKN160 60 52     75%     29.99 30      
Sep 14 11:46 SW 8 10 Mostly Cloudy SCT011 BKN060 BKN160 61 52     72%     29.99        
May 15 00:53 WSW 6 10 Mostly Clear FEW250 63 51     65%     29.89 29.9      
May 14 14:53 NW 8 10 Mostly Clear FEW050 FEW250 84 55     37%   83 29.9 29.91      
May 14 05:53 SSW 3 10 Mostly Clear FEW250 59 52     78%     29.96 29.97      
May 13 17:53 N 5 10 Mostly Clear FEW250 84 46     27%   82 29.9 29.91      
May 13 01:53 NE 7 10 Clear CLR 60 47     62%     29.97 29.98      
May 12 18:53 NNE 13 10 Mostly Clear FEW030 74 49     41%   73 29.98 29.99      
May 12 17:53 N 13 10 Mostly Clear FEW030 76 49     39%   75 29.99 30.01      
May 12 13:53 NNE 11 10 Clear   72 51     48%   71 30.07 30.08      
Jun 12 03:53 SW 7 10 Partly Cloudy SCT011 52 49     89%     30 30.02      
Jun 11 13:53 WSW 7 10 Partly Cloudy FEW040 SCT170 65 48     54%     30.02 30.04      
Jun 11 02:53 S 5 10 Mostly Cloudy SCT080 BKN180 53 49     86%     29.99 30.01      
Jun 10 15:53 WNW 10 10 Partly Cloudy SCT045 SCT200 66 41     40%     29.86 29.87      
Jun 07 10:53 W 7 10 Mostly Cloudy FEW120 BKN250 67 48     51%     29.78 29.79      
Jun 06 05:53 NNE 6 10 Partly Cloudy SCT140 SCT250 56 43     62%     30.01 30.03      
Jun 05 21:53 N 8 10 Mostly Cloudy BKN250 62 43     50%     30.06 30.07